CZ-6A DEB, 61161

Orbit data source: Space-Track

CZ-6A DEB, 61161 is space debris in LEO originally from a launch on Tue, 06 Aug 2024 UTC launched from the Taiyaun Space Center, China (TSC). Debris objects in space refer to the collection of defunct objects orbiting the Earth. Examples of debris include non-operational satellites, rocket bodies, and fragments generated from explosions, collisions, or faulty payload assembly.

Loading next visibility...
Identifier
61161, 2024-140RF
Orbit
LEO
Country
Flag of CNCN / PRC
Related business
Manufacturer
SAST
Mission
Spacecraft
Bus & Motor
Unknown
Mass
Unknown
Launch date (UTC)
2024-08-06 (2 years ago)
Launch vehicle
Unknown
Launch site
Taiyaun Space Center, China (TSC)
Object type
Payload
Rocket body
Debris
Shape & HBR
Unknown shape, 0.1 m
Radar Cross Section
Medium (>0.1 m² and <1 m²)

Expand to show TLE details & history
Last TLE update: 12 hours ago

TLE from 12 hours ago
0 CZ-6A DEB
1 61161U 24140RF  26171.47627525  .00002250  00000-0  41137-3 0  9999
2 61161  88.8253 254.6926 0124971 271.9884  86.7021 14.60609519 97155
Epoch: 2026-06-20T11:25Z
TLE epoch observation values (Epoch: 2026-06-20T11:25:50.181Z)
Latitude
-0.00002°
Longitude
174.54316°
Altitude
690.336 km
Speed
7.513 km/s
True Right ascension
16h 58m 46s
True Declination
0° 00' 00"
Sunlit
Object was in full shadow at epoch
Visualization orbit readout
Latitude
Unknown
Longitude
Unknown
Altitude
Unknown
Speed
Unknown
Apparent Right ascension
Unknown
Apparent Declination
Unknown
Sunlit
N/A
Visualization observer readout
Local Sidereal Time
10:20:27
Azimuth
Unknown
Elevation
Unknown
Doppler factor
Unknown
Orbital elements
Apogee altitude
776.408 km
Perigee altitude
599.793 km
Semi-major axis
7,066.237 km
Eccentricity
0.0125
Inclination
88.8253°
RAAN
254.6926°
Arg. of periapsis
271.9884°
True anomaly
88.13293°
Mean anomaly
86.7021°
Eccentric anomaly
87.4174°
Mean motion
3.65394 °/min
Orbital period
98.52 mins
BSTAR
0.00041137
Loading maneuver chart data...
Computing Atmospheric mass density...
Loading historical data...
Loading historical data...
Loading historical data...
Loading historical data...
Loading historical data...
Loading historical data...
Loading historical data...

Documentation

Showing up to 5 results
|